Theta_e
307 306 306 306 305 304 302 294 290 303 301 291 287 286 291 296 295 297 294 292 291 288 288 286 286 286 290 296 294 288 289 284 280 283 290 291 287 284 284 276 275 280 281 280
307 305 305 305 305 304 299 293 293 302 299 284 283 288 291 294 294 294 292 290 291 290 286 282 288 290 295 294 293 290 289 282 279 280 283 287 285 287 287 286 283 281 278 279
306 305 305 305 304 303 298 292 288 291 292 290 286 286 288 290 296 294 294 292 291 288 286 287 286 289 294 295 293 300 295 284 283 279 281 282 283 287 289 288 282 281 282 283
305 304 305 304 303 303 296 290 286 288 282 285 285 287 288 288 288 292 292 289 289 287 282 284 284 288 289 293 295 292 291 282 284 286 288 288 287 287 288 286 287 283 285 285
304 303 303 304 303 303 294 288 286 288 285 287 287 287 286 287 289 289 287 285 289 287 283 285 283 285 286 286 290 287 287 282 285 284 288 288 286 288 288 288 289 289 289 287
304 303 303 303 304 299 291 293 292 288 285 285 283 283 287 287 289 290 291 289 286 285 288 291 291 291 291 291 288 285 285 283 280 279 286 285 281 286 288 290 291 289 285 289
304 303 303 302 303 299 291 292 291 287 283 284 285 288 289 287 288 286 290 290 286 290 293 292 291 290 290 291 291 291 284 284 285 281 285 273 286 292 292 289 290 291 291 292
303 303 302 302 302 302 292 292 290 289 285 286 287 288 287 287 288 286 288 289 291 291 289 284 283 284 285 291 293 291 290 286 284 282 277 282 287 290 288 286 286 292 290 293
303 302 302 302 301 302 292 290 292 289 286 283 290 287 287 283 281 283 287 291 293 289 286 286 282 279 285 285 289 296 293 291 285 284 279 271 281 291 294 293 283 293 293 292
303 302 302 302 302 302 295 291 292 289 287 288 288 284 284 286 282 280 284 289 287 293 287 284 279 281 289 284 284 285 285 287 283 282 280 281 290 293 295 282 283 291 292 292
303 302 302 302 302 301 298 292 292 291 288 289 290 290 286 285 284 283 284 283 285 283 280 285 286 284 287 282 286 284 281 281 282 282 280 275 293 293 288 291 293 292 293 293
302 302 302 301 302 301 301 290 294 294 291 289 292 293 293 292 290 286 284 283 285 288 281 283 284 278 281 282 278 288 279 284 280 283 280 288 293 292 297 299 296 295 293 295
302 302 302 301 302 302 301 293 293 294 289 288 284 286 292 295 294 295 284 284 289 287 294 290 283 281 288 283 281 283 288 289 284 285 288 291 294 296 297 299 297 297 295 294
302 302 301 301 302 302 302 296 294 295 290 283 284 294 291 296 294 292 293 291 292 295 296 291 288 285 290 286 285 285 288 288 285 285 290 293 295 297 298 297 298 297 296 295
302 301 301 301 301 301 299 295 294 297 287 283 285 291 292 295 295 292 291 291 289 294 292 289 287 290 290 289 285 284 289 286 284 286 294 294 294 298 298 297 296 297 295 294
302 301 301 301 301 301 292 287 296 297 296 288 282 288 290 294 296 294 292 293 289 291 292 292 293 295 291 287 283 288 291 293 295 292 297 298 299 300 298 295 294 296 296 295
301 300 300 300 301 297 290 286 296 300 294 287 285 281 289 292 295 296 297 295 294 294 294 292 293 293 293 288 284 291 293 296 298 300 299 296 296 293 295 294 296 297 295 295
300 300 301 301 301 299 294 295 300 300 292 292 283 281 285 292 288 288 296 296 296 296 294 294 292 293 292 286 290 292 296 299 300 298 297 294 294 294 294 296 296 292 291 293
300 300 301 298 295 291 293 304 303 299 294 288 287 284 279 291 288 288 293 297 290 296 291 291 292 290 286 291 293 295 298 298 299 297 295 293 293 293 295 295 292 291 291 292
300 298 294 293 297 301 303 298 294 292 293 292 286 289 284 289 289 287 286 293 290 286 290 294 289 289 296 297 299 301 302 301 296 291 290 292 292 293 294 292 292 291 292 292
290 286 288 291 297 292 288 286 289 289 286 288 288 288 286 292 288 288 289 283 289 287 290 290 288 287 292 295 296 299 300 296 296 294 294 293 293 294 294 293 292 292 292 291
290 290 293 292 290 287 283 283 290 287 285 290 287 286 289 291 292 291 292 288 291 284 294 290 285 290 292 292 293 295 301 298 295 296 295 295 294 295 294 294 292 292 292 292
295 291 289 287 285 278 281 281 282 282 287 288 287 283 286 287 293 289 290 287 284 292 288 285 288 290 290 290 294 298 303 296 296 295 296 296 295 296 295 293 293 291 291 292
290 288 279 282 282 283 284 283 283 285 287 286 283 283 284 285 286 290 285 289 289 283 280 281 287 288 287 290 296 302 301 296 297 296 296 295 294 294 294 294 293 292 290 291
288 287 277 282 286 285 285 286 284 286 286 284 283 282 284 287 286 288 286 284 280 281 280 284 288 288 289 292 296 300 302 301 295 297 296 295 294 294 293 293 293 292 291 290
288 287 283 284 283 283 283 283 285 287 286 286 287 286 285 284 285 278 280 276 273 279 285 288 289 290 290 292 295 299 303 302 300 297 297 296 294 294 293 293 293 292 291 290
287 284 286 284 283 283 283 285 287 288 284 282 284 282 280 287 278 276 281 280 283 285 287 289 290 290 290 292 295 301 303 302 300 297 297 296 295 295 293 291 292 293 292 292
Wind_Speed
21 23 25 26 27 28 9 3 3 5 3 6 1 0 2 5 5 4 4 5 6 5 4 4 4 6 5 5 6 5 5 5 4 9 13 8 4 6 6 5 6 4 4 20
21 22 23 25 25 21 3 2 3 4 5 3 3 6 6 4 3 4 4 3 1 2 3 2 5 4 4 5 5 6 6 1 4 8 5 4 3 4 4 2 2 14 10 13
20 21 23 25 26 25 3 3 4 6 6 1 3 4 5 5 5 1 2 4 1 4 3 4 5 4 4 2 1 11 6 5 7 7 9 3 10 12 14 13 6 8 15 30
19 20 22 24 26 26 3 4 0 2 5 3 2 3 3 3 5 5 6 4 2 4 4 4 6 5 6 8 8 5 8 7 7 10 14 13 18 19 18 17 21 16 18 19
17 18 20 22 25 21 5 3 4 4 3 4 5 1 0 3 3 3 5 2 7 6 6 8 8 6 5 9 6 4 2 5 5 5 10 16 19 17 17 18 14 9 11 18
15 16 17 18 20 11 4 3 1 3 3 3 2 4 1 3 8 7 4 4 5 6 9 5 13 13 14 14 8 7 6 4 2 17 11 10 12 14 7 5 6 5 9 11
13 14 14 15 14 8 2 1 1 1 5 2 4 5 7 12 5 9 10 7 6 5 6 11 11 13 17 17 18 12 7 7 5 4 1 6 5 1 3 6 10 9 13 15
11 11 12 12 12 11 2 1 1 1 5 4 11 8 6 7 9 5 8 9 5 6 6 4 6 5 4 1 2 7 14 5 4 4 4 7 5 5 6 5 10 10 13 14
10 10 10 10 9 9 3 1 2 0 3 5 6 3 3 6 3 6 5 10 9 3 2 3 3 3 3 3 4 5 7 7 4 2 3 6 7 4 3 3 10 7 8 12
10 10 10 10 9 9 2 2 2 1 4 5 4 5 4 2 1 4 5 6 7 2 3 2 3 4 5 2 3 2 3 2 5 4 5 8 5 5 5 3 7 3 6 8
10 10 10 10 9 8 2 4 4 3 4 9 9 6 5 2 3 4 4 6 4 4 5 2 2 3 2 4 4 4 4 4 3 3 4 8 3 5 5 7 7 6 8 10
9 11 11 10 10 8 5 2 2 2 4 7 9 16 17 13 12 6 3 6 4 4 2 3 3 3 4 3 4 4 3 4 3 7 8 6 6 6 7 14 17 17 7 11
9 11 11 11 11 10 6 3 3 2 3 7 4 5 5 6 17 13 6 3 7 4 3 2 3 5 2 2 4 3 4 2 4 3 5 8 7 9 12 7 13 13 6 7
9 11 11 12 12 11 9 2 3 2 3 5 8 4 9 7 7 9 15 7 1 2 2 2 3 3 3 3 6 7 8 4 5 7 12 11 11 7 9 10 11 11 9 7
10 12 11 12 11 11 5 4 4 6 4 4 8 14 5 7 6 8 9 13 6 3 2 4 3 3 3 3 3 5 4 6 4 11 6 6 19 15 7 11 9 9 10 12
11 12 11 12 10 9 2 3 2 3 2 4 5 5 7 11 10 5 6 8 4 4 4 3 3 3 2 3 4 8 7 4 6 11 13 17 15 13 3 5 11 11 14 12
12 12 12 12 10 1 3 3 1 8 3 2 5 6 6 6 6 4 3 5 3 3 3 4 2 3 4 3 6 10 9 11 14 15 10 7 3 5 8 13 13 9 12 12
14 14 14 13 10 4 4 4 12 8 2 2 3 6 6 5 4 4 2 2 2 3 2 2 2 1 3 5 8 11 10 13 10 7 4 3 6 8 10 13 8 11 10 12
16 15 12 1 2 2 3 3 7 3 3 2 2 3 5 5 4 3 3 1 2 2 3 2 3 3 5 5 12 15 14 9 11 8 6 7 8 12 13 12 12 9 11 12
17 2 2 1 3 6 6 1 1 1 1 1 3 2 5 3 2 4 2 1 2 2 3 3 3 2 7 13 18 13 11 6 5 6 7 9 13 13 13 12 10 10 11 11
2 1 1 2 7 2 2 2 3 2 3 3 3 4 5 2 3 4 2 3 3 3 1 3 1 1 11 20 20 17 12 3 2 0 3 5 7 10 11 11 11 10 11 10
3 2 1 2 1 1 1 3 3 3 3 3 4 5 5 3 2 4 3 3 2 3 2 3 3 5 19 20 20 19 16 9 6 2 4 6 7 10 10 10 10 10 10 10
1 1 0 2 1 1 3 2 1 2 3 4 2 4 3 3 2 3 3 3 3 6 3 4 3 12 18 22 20 19 10 5 5 5 4 6 8 11 12 11 12 13 11 10
2 3 0 4 3 4 3 3 4 5 3 4 2 3 2 1 2 2 3 3 3 4 6 5 8 17 21 19 19 12 10 6 6 6 6 5 7 9 10 9 10 11 11 12
3 3 3 5 3 2 2 2 0 3 2 1 3 1 1 1 2 2 3 4 4 4 4 5 11 19 18 18 18 15 13 9 5 5 4 4 5 7 8 9 8 9 10 11
3 4 2 2 1 2 2 1 2 2 3 1 3 2 2 3 3 5 5 4 3 4 6 10 12 15 18 19 18 16 13 11 6 5 3 3 5 7 8 9 10 10 10 10
4 4 2 2 2 4 3 2 2 1 2 1 2 4 1 2 4 4 3 3 5 8 10 9 12 14 17 17 17 15 12 11 9 7 6 3 4 5 8 11 10 9 10 10
Wind_Direction
349 348 349 351 354 349 23 4 31 315 34 47 28 346 281 282 286 321 267 184 204 214 232 242 231 234 231 193 172 186 198 160 245 239 268 234 184 210 167 140 270 235 275 274
348 350 351 351 353 5 319 16 278 317 68 88 331 312 295 266 304 352 320 297 323 354 257 274 225 225 262 328 174 179 179 209 308 324 358 354 136 189 182 199 318 252 258 267
350 350 352 352 350 352 124 52 0 329 32 37 87 342 278 311 314 251 327 268 38 11 271 222 279 269 281 26 227 296 187 171 182 237 249 226 290 274 265 254 247 269 236 274
352 354 355 355 352 348 102 26 358 173 305 328 351 259 273 284 320 341 337 301 47 277 263 268 247 249 297 279 268 277 160 206 207 239 256 267 263 265 267 261 259 249 277 265
353 356 359 359 356 348 71 57 19 354 287 304 325 286 225 298 332 278 278 300 300 297 233 224 282 281 237 246 270 208 180 260 199 254 249 249 268 271 262 266 268 252 274 280
351 355 1 6 7 17 49 331 359 102 277 322 341 242 52 323 322 279 256 303 306 265 262 272 278 254 252 245 223 202 176 161 77 280 255 263 268 249 218 236 235 212 259 268
345 352 357 6 14 57 119 301 349 51 277 251 221 289 298 295 271 257 275 287 273 250 309 293 271 251 252 246 243 216 208 181 173 264 229 250 291 224 206 250 269 257 260 269
335 345 352 358 8 15 80 279 57 292 275 255 289 256 241 309 298 267 272 274 280 292 301 290 322 312 336 113 279 216 202 166 234 236 193 299 271 221 188 184 278 260 259 263
324 333 342 346 354 355 86 256 168 9 293 249 262 307 223 278 272 318 289 322 306 318 259 257 292 286 311 332 13 68 131 202 207 131 269 258 237 198 111 113 274 254 205 249
314 322 329 335 338 344 71 266 178 96 270 267 189 214 228 196 156 252 285 312 319 10 315 271 248 258 359 301 273 159 168 181 230 221 241 275 258 133 127 225 263 271 212 241
303 311 315 323 326 332 357 263 198 163 251 282 249 245 235 267 174 202 283 358 334 338 16 314 315 313 321 321 302 296 202 170 222 217 239 279 108 107 214 244 301 250 242 249
294 305 307 314 314 321 328 273 250 186 234 261 288 263 248 223 208 153 228 220 327 276 1 1 351 338 318 331 292 329 299 191 206 195 227 232 204 243 269 280 275 279 231 253
292 297 302 308 306 309 294 232 241 256 279 285 330 257 258 211 228 209 190 254 191 254 186 204 236 258 268 274 255 280 292 235 238 325 277 264 265 274 283 276 259 268 257 255
288 291 298 300 303 305 305 226 197 217 273 282 280 305 301 266 236 181 207 231 9 195 183 185 224 243 191 255 253 261 255 323 260 262 285 290 269 268 266 289 282 267 264 264
282 288 296 300 306 309 313 236 218 210 170 282 293 308 251 278 245 218 210 214 209 206 192 228 235 225 267 262 269 255 200 215 195 279 274 278 285 300 283 282 284 296 295 304
281 288 298 298 304 323 10 1 42 160 152 289 304 274 287 301 307 222 187 198 163 202 186 209 227 239 185 266 262 249 240 259 240 288 294 290 291 287 330 295 313 301 301 312
281 288 290 288 287 237 206 202 127 172 76 251 290 300 277 301 318 337 44 122 185 168 221 230 233 220 191 252 268 282 320 304 290 289 291 291 331 305 328 307 297 304 308 296
286 290 288 279 263 268 260 251 244 212 205 247 282 277 328 354 307 317 321 150 176 205 243 231 222 181 205 256 260 283 278 283 305 293 303 332 306 308 299 307 316 327 304 304
295 299 298 143 108 187 232 142 109 156 185 255 245 292 286 349 294 280 296 150 236 202 240 237 140 202 229 260 293 297 295 290 289 310 335 320 316 311 309 327 325 313 316 311
300 148 193 190 166 329 107 189 183 201 237 225 254 261 270 3 296 288 336 296 244 251 218 139 219 258 343 331 331 319 290 301 328 342 333 333 332 323 319 328 324 329 314 324
48 50 218 326 314 85 108 235 228 151 224 219 238 237 271 232 251 282 217 279 258 257 168 226 199 52 346 338 333 336 326 285 340 25 295 309 303 318 321 326 335 337 332 332
178 139 279 289 60 113 237 211 185 210 228 211 225 236 213 258 219 250 265 270 263 267 136 251 54 343 339 336 328 324 313 288 288 286 308 328 334 345 335 338 343 350 344 343
128 148 133 90 183 82 218 230 256 267 212 222 229 298 223 323 266 286 311 287 273 307 344 29 46 334 332 332 328 321 317 262 279 294 316 347 347 353 357 352 352 349 353 353
199 182 116 183 189 236 208 190 205 241 208 272 209 247 194 258 299 337 291 334 344 31 13 347 334 334 322 320 314 337 325 298 291 295 314 354 346 359 6 1 350 354 358 353
224 182 211 206 238 262 241 216 253 265 234 334 347 33 87 321 309 22 343 354 37 30 8 305 317 317 321 325 334 340 340 326 326 312 306 4 352 358 3 12 16 12 3 2
234 230 260 241 113 331 15 319 301 314 320 76 59 47 7 40 1 42 10 31 17 326 317 308 313 317 328 335 333 327 335 336 347 339 7 41 16 3 353 2 18 12 11 17
219 240 208 190 191 212 217 209 259 328 64 50 86 50 312 351 43 38 24 353 329 321 313 312 313 327 324 329 327 332 349 351 3 356 10 58 21 7 5 14 12 16 17 17